W4ZHA Weather Reports


Display with metric or nautical units.
time (UTC)temp
F
wind
direction
speed
MPH
gust
MPH
rain 1hr
in
rain 24hr
in
rain mn
in
humidity
%
barometer
mb
20260505183802 77 274 0.0 5.0 0.00 0.00 0.00 45 1013.4
20260505183259 77 230 0.0 10.0 0.00 0.00 0.00 45 1013.4
20260505182756 78 143 5.0 5.0 0.00 0.00 0.00 45 1013.4
20260505182252 78 225 0.0 5.0 0.00 0.00 0.00 45 1013.8
20260505181749 78 271 0.0 0.0 0.00 0.00 0.00 45 1013.8
20260505181246 77 227 0.0 8.0 0.00 0.00 0.00 46 1013.8
20260505180743 78 151 0.0 2.0 0.00 0.00 0.00 45 1013.8
20260505180239 78 249 0.0 2.0 0.00 0.00 0.00 45 1013.8
20260505175736 78 125 0.0 0.0 0.00 0.00 0.00 45 1013.8
20260505175232 77 156 2.0 10.0 0.00 0.00 0.00 46 1014.1
20260505174729 78 176 0.0 2.0 0.00 0.00 0.00 45 1013.8
20260505174226 77 177 0.0 2.0 0.00 0.00 0.00 46 1014.1
20260505173722 77 192 1.0 5.0 0.00 0.00 0.00 45 1014.1
20260505173219 78 217 0.0 0.0 0.00 0.00 0.00 45 1014.1
20260505172716 78 126 0.0 0.0 0.00 0.00 0.00 45 1014.4
20260505172213 77 210 0.0 0.0 0.00 0.00 0.00 46 1014.4
20260505171713 78 98 0.0 0.0 0.00 0.00 0.00 45 1014.4
20260505171210 76 150 0.0 0.0 0.00 0.00 0.00 46 1015.1
20260505170707 76 253 0.0 5.0 0.00 0.00 0.00 46 1014.8
20260505170204 77 159 0.0 0.0 0.00 0.00 0.00 46 1014.8
20260505165704 77 292 0.0 5.0 0.00 0.00 0.00 46 1015.1
20260505165200 75 280 1.0 2.0 0.00 0.00 0.00 47 1014.8
20260505164655 75 131 0.0 8.0 0.00 0.00 0.00 47 1015.1
20260505164153 75 114 0.0 0.0 0.00 0.00 0.00 46 1015.1
20260505163651 75 228 0.0 0.0 0.00 0.00 0.00 46 1015.1
20260505163149 76 143 0.0 0.0 0.00 0.00 0.00 55 1015.1
20260505162646 73 239 0.0 0.0 0.00 0.00 0.00 53 1015.5
20260505162144 75 201 0.0 0.0 0.00 0.00 0.00 53 1015.1
20260505161640 73 270 0.0 2.0 0.00 0.00 0.00 54 1014.8
20260505161138 73 237 0.0 0.0 0.00 0.00 0.00 55 1015.1
20260505160636 72 249 0.0 5.0 0.00 0.00 0.00 55 1015.1
20260505160133 71 205 0.0 0.0 0.00 0.00 0.00 56 1015.1
20260505153112 71 233 0.0 0.0 0.00 0.00 0.00 58 1015.5
20260505152609 71 163 0.0 2.0 0.00 0.00 0.00 57 1015.5
20260505152104 70 127 0.0 0.0 0.00 0.00 0.00 57 1015.5
20260505151600 70 198 0.0 2.0 0.00 0.00 0.00 58 1015.5
20260505151058 71 275 0.0 0.0 0.00 0.00 0.00 58 1015.5
20260505150554 70 163 0.0 0.0 0.00 0.00 0.00 59 1015.5
20260505140519 64 156 0.0 0.0 0.00 0.00 0.00 62 1015.5
20260505124932 60 234 0.0 0.0 0.00 0.00 0.00 70 1015.5
20260505124429 60 234 0.0 0.0 0.00 0.00 0.00 71 1015.5
20260505123925 60 234 0.0 0.0 0.00 0.00 0.00 71 1015.5
20260505123422 59 235 0.0 0.0 0.00 0.00 0.00 71 1015.1
20260505122918 59 240 0.0 0.0 0.00 0.00 0.00 72 1015.1
20260505122415 58 248 0.0 0.0 0.00 0.00 0.00 72 1015.1
20260505121912 57 228 0.0 0.0 0.00 0.00 0.00 74 1014.8
20260505121409 57 228 0.0 0.0 0.00 0.00 0.00 75 1014.8
20260505120905 57 248 0.0 0.0 0.00 0.00 0.00 75 1014.8
20260505120402 56 239 0.0 0.0 0.00 0.00 0.00 76 1014.8
20260505115900 55 228 0.0 0.0 0.00 0.00 0.00 75 1014.8
20260505115357 54 228 0.0 0.0 0.00 0.00 0.00 76 1014.8
20260505114855 53 228 0.0 0.0 0.00 0.00 0.00 77 1014.8
20260505114351 53 240 0.0 0.0 0.00 0.00 0.00 78 1014.4
20260505113848 52 219 0.0 0.0 0.00 0.00 0.00 79 1014.4
20260505113344 52 236 0.0 0.0 0.00 0.00 0.00 80 1014.4
20260505112840 51 234 0.0 0.0 0.00 0.00 0.00 80 1014.4
20260505112338 51 227 0.0 0.0 0.00 0.00 0.00 80 1014.4
20260505111833 51 226 0.0 0.0 0.00 0.00 0.00 80 1014.4
20260505111329 50 230 0.0 0.0 0.00 0.00 0.00 79 1014.4
20260505110825 50 226 0.0 0.0 0.00 0.00 0.00 79 1014.4
20260505110323 50 227 0.0 0.0 0.00 0.00 0.00 79 1014.4
20260505101757 50 266 0.0 0.0 0.00 0.00 0.00 79 1013.8
20260505101253 50 220 0.0 0.0 0.00 0.00 0.00 79 1013.8
20260505100749 50 218 0.0 0.0 0.00 0.00 0.00 78 1013.8
20260505100246 51 250 0.0 0.0 0.00 0.00 0.00 78
20260505095741 51 230 0.0 0.0 0.00 0.00 0.00 79
20260505095240 51 190 0.0 0.0 0.00 0.00 0.00 79 1013.4
20260505094735 51 255 0.0 0.0 0.00 0.00 0.00 79 1013.4
20260505094232 51 213 0.0 0.0 0.00 0.00 0.00 79 1013.8
20260505093728 51 203 0.0 0.0 0.00 0.00 0.00 79 1013.8
20260505093225 51 67 0.0 0.0 0.00 0.00 0.00 79 1013.4
20260505092722 51 207 0.0 0.0 0.00 0.00 0.00 79 1013.8
20260505092221 51 216 0.0 0.0 0.00 0.00 0.00 79 1013.4
20260505091717 51 221 0.0 0.0 0.00 0.00 0.00 78 1013.8
20260505091216 51 220 0.0 0.0 0.00 0.00 0.00 78 1013.8
20260505090713 51 214 0.0 0.0 0.00 0.00 0.00 78 1013.4
20260505090211 51 236 0.0 0.0 0.00 0.00 0.00 78 1013.8
20260505085708 51 213 0.0 0.0 0.00 0.00 0.00 78 1013.4
20260505085206 51 222 0.0 0.0 0.00 0.00 0.00 78 1013.0
20260505084703 51 236 0.0 0.0 0.00 0.00 0.00 78 1013.0
20260505084202 51 243 0.0 0.0 0.00 0.00 0.00 78 1013.4
20260505083659 51 230 0.0 0.0 0.00 0.00 0.00 78 1013.4
20260505083155 52 228 0.0 0.0 0.00 0.00 0.00 77 1013.8
20260505082651 52 220 0.0 0.0 0.00 0.00 0.00 77 1013.8
20260505082148 52 149 0.0 0.0 0.00 0.00 0.00 76 1013.8
20260505081644 52 183 0.0 0.0 0.00 0.00 0.00 77 1013.8
20260505081142 52 239 0.0 0.0 0.00 0.00 0.00 76 1013.8
20260505080639 52 234 0.0 0.0 0.00 0.00 0.00 77 1013.8
20260505080135 52 170 0.0 0.0 0.00 0.00 0.00 76 1013.8
20260505075631 52 256 0.0 0.0 0.00 0.00 0.00 77 1013.8
20260505075128 52 244 0.0 0.0 0.00 0.00 0.00 76 1013.8
20260505074625 53 225 0.0 0.0 0.00 0.00 0.00 76 1013.8
20260505074122 53 198 0.0 0.0 0.00 0.00 0.00 76 1013.8
20260505073620 53 237 0.0 0.0 0.00 0.00 0.00 76 1013.8
20260505073118 53 220 0.0 0.0 0.00 0.00 0.00 76 1013.8
20260505072613 54 222 0.0 0.0 0.00 0.00 0.00 75 1013.8
20260505072110 53 258 0.0 0.0 0.00 0.00 0.00 76 1013.8
20260505071605 54 200 0.0 0.0 0.00 0.00 0.00 75 1013.8
20260505071103 54 224 0.0 0.0 0.00 0.00 0.00 75 1013.8
20260505070600 54 220 0.0 0.0 0.00 0.00 0.00 75 1013.8
20260505070056 54 219 0.0 0.0 0.00 0.00 0.00 75 1013.8
20260505065552 54 244 0.0 0.0 0.00 0.00 0.00 74 1013.8
20260505065049 54 222 0.0 0.0 0.00 0.00 0.00 74 1013.8
20260505064546 55 215 0.0 0.0 0.00 0.00 0.00 74 1013.8
20260505064045 55 246 0.0 0.0 0.00 0.00 0.00 74 1013.8
20260505063542 55 225 0.0 0.0 0.00 0.00 0.00 74 1013.8
20260505063037 55 265 0.0 0.0 0.00 0.00 0.00 74 1013.8
20260505062534 55 249 0.0 0.0 0.00 0.00 0.00 74 1013.8
20260505062031 55 228 0.0 0.0 0.00 0.00 0.00 74 1014.1
20260505061529 56 237 0.0 0.0 0.00 0.00 0.00 74 1013.8
20260505061027 56 232 0.0 0.0 0.00 0.00 0.00 74 1014.1
20260505060524 56 228 0.0 0.0 0.00 0.00 0.00 74 1013.8
20260505060021 56 239 0.0 0.0 0.00 0.00 0.00 74 1013.8
20260505055516 57 260 0.0 0.0 0.00 0.00 0.00 74 1014.1
20260505055013 57 228 0.0 0.0 0.00 0.00 0.00 74 1013.8
20260505054510 57 251 0.0 0.0 0.00 0.00 0.00 74 1013.8
20260505054008 56 217 0.0 0.0 0.00 0.00 0.00 74 1013.8
20260505053505 57 215 0.0 0.0 0.00 0.00 0.00 74 1013.8
20260505053001 57 244 0.0 0.0 0.00 0.00 0.00 73 1013.8
20260505052459 57 257 0.0 0.0 0.00 0.00 0.00 73 1014.1
20260505051956 57 247 0.0 0.0 0.00 0.00 0.00 72 1013.8
20260505051452 57 282 0.0 0.0 0.00 0.00 0.00 73 1013.8
20260505050951 57 239 0.0 0.0 0.00 0.00 0.00 73 1013.8
20260505050449 57 226 0.0 0.0 0.00 0.00 0.00 73 1013.8
20260505041416 57 240 0.0 0.0 0.00 0.00 0.00 70 1013.8
20260505040913 58 233 0.0 0.0 0.00 0.00 0.00 70 1013.8
20260505040411 58 238 0.0 0.0 0.00 0.00 0.00 70 1013.8
20260505035907 58 236 0.0 0.0 0.00 0.00 0.00 70 1013.8
20260505035403 58 225 0.0 0.0 0.00 0.00 0.00 71 1013.8
20260505034901 58 218 0.0 0.0 0.00 0.00 0.00 70 1013.8
20260505034357 58 232 0.0 0.0 0.00 0.00 0.00 69 1013.8
20260505033854 59 234 0.0 0.0 0.00 0.00 0.00 69 1013.8
20260505033351 59 242 0.0 0.0 0.00 0.00 0.00 69 1013.8
20260505032849 59 229 0.0 0.0 0.00 0.00 0.00 68 1013.8
20260505032346 60 228 0.0 0.0 0.00 0.00 0.00 68 1013.8
20260505031843 60 236 0.0 0.0 0.00 0.00 0.00 68 1013.8
20260505031339 60 235 0.0 0.0 0.00 0.00 0.00 68 1013.8
20260505030837 60 227 0.0 0.0 0.00 0.00 0.00 67 1013.8
20260505030332 61 237 0.0 0.0 0.00 0.00 0.00 66 1013.8
20260505025828 61 242 0.0 0.0 0.00 0.00 0.00 66 1013.8
20260505025326 62 212 0.0 0.0 0.00 0.00 0.00 66 1013.8
20260505024824 62 236 0.0 0.0 0.00 0.00 0.00 66 1013.8
20260505024322 62 254 0.0 0.0 0.00 0.00 0.00 67 1013.8
20260505023819 62 229 0.0 0.0 0.00 0.00 0.00 65 1014.1
20260505023315 62 238 0.0 0.0 0.00 0.00 0.00 65 1013.8
20260505022813 62 220 0.0 0.0 0.00 0.00 0.00 66 1013.8
20260505022310 62 229 0.0 0.0 0.00 0.00 0.00 65 1013.8
20260505021807 63 223 0.0 0.0 0.00 0.00 0.00 64 1013.8
20260505021303 62 204 0.0 0.0 0.00 0.00 0.00 64 1014.1
20260505020759 63 224 0.0 0.0 0.00 0.00 0.00 65 1013.8
20260505020254 63 234 0.0 0.0 0.00 0.00 0.00 65 1013.4
20260505015752 63 233 0.0 0.0 0.00 0.00 0.00 64 1013.4
20260505015249 63 220 0.0 0.0 0.00 0.00 0.00 64 1013.8
20260505014746 64 221 0.0 0.0 0.00 0.00 0.00 64 1013.4
20260505014243 64 238 0.0 0.0 0.00 0.00 0.00 64 1013.4
20260505013739 64 236 0.0 0.0 0.00 0.00 0.00 63 1013.4
20260505013237 65 228 0.0 0.0 0.00 0.00 0.00 63 1013.4
20260505012735 65 236 0.0 0.0 0.00 0.00 0.00 62 1013.4
20260505012232 66 226 0.0 0.0 0.00 0.00 0.00 61 1013.4
20260505011728 66 254 0.0 0.0 0.00 0.00 0.00 58 1013.4
20260505011225 67 259 0.0 0.0 0.00 0.00 0.00 58 1013.0
20260505010721 67 235 0.0 0.0 0.00 0.00 0.00 57 1013.4
20260505010217 69 232 0.0 0.0 0.00 0.00 0.00 58 1013.4
20260505005714 70 228 0.0 0.0 0.00 0.00 0.00 57 1013.4
20260505005211 70 232 0.0 0.0 0.00 0.00 0.00 55 1013.0
20260505004708 71 237 0.0 0.0 0.00 0.00 0.00 55 1012.7
20260505004204 71 257 0.0 0.0 0.00 0.00 0.00 55 1013.0
20260505003702 71 239 0.0 0.0 0.00 0.00 0.00 55 1012.7
20260505003159 72 228 0.0 0.0 0.00 0.00 0.00 53 1013.0
20260505002655 72 139 0.0 0.0 0.00 0.00 0.00 53 1012.7
20260505002153 73 235 0.0 0.0 0.00 0.00 0.00 53 1013.0
20260505001650 73 225 0.0 0.0 0.00 0.00 0.00 53 1013.0
20260505001148 73 237 0.0 0.0 0.00 0.00 0.00 53 1012.7
20260505000644 74 179 0.0 2.0 0.00 0.00 0.00 51 1012.7
20260505000143 74 245 0.0 0.0 0.00 0.00 0.00 51 1012.7
20260504235638 74 268 0.0 0.0 0.00 0.00 0.00 50 1012.7
20260504235135 74 222 0.0 0.0 0.00 0.00 0.00 50 1012.7
20260504234632 75 103 0.0 0.0 0.00 0.00 0.00 50 1012.7
20260504234130 75 156 0.0 0.0 0.00 0.00 0.00 49 1012.7
20260504233625 74 243 0.0 0.0 0.00 0.00 0.00 49 1013.0
20260504233121 75 237 0.0 0.0 0.00 0.00 0.00 49 1012.7
20260504232619 75 284 0.0 0.0 0.00 0.00 0.00 48 1012.7
20260504232116 75 129 0.0 0.0 0.00 0.00 0.00 47 1013.0
20260504231613 75 233 0.0 0.0 0.00 0.00 0.00 46 1012.7
20260504231109 76 166 0.0 0.0 0.00 0.00 0.00 46 1012.7
20260504230605 76 152 0.0 0.0 0.00 0.00 0.00 46 1012.7
20260504230104 76 209 0.0 0.0 0.00 0.00 0.00 46 1012.7
20260504225601 76 196 0.0 0.0 0.00 0.00 0.00 46 1012.7
20260504225058 76 195 0.0 10.0 0.00 0.00 0.00 46 1012.7
20260504224554 77 271 0.0 0.0 0.00 0.00 0.00 45 1012.7
20260504224052 77 200 0.0 8.0 0.00 0.00 0.00 45 1012.7
20260504223549 77 146 0.0 2.0 0.00 0.00 0.00 45 1013.0
20260504223044 78 180 0.0 5.0 0.00 0.00 0.00 45 1012.7
20260504222542 77 155 0.0 5.0 0.00 0.00 0.00 45 1012.7
20260504222039 78 154 0.0 0.0 0.00 0.00 0.00 45 1013.0
20260504221536 78 269 0.0 0.0 0.00 0.00 0.00 45 1012.7
20260504221032 77 158 0.0 0.0 0.00 0.00 0.00 46 1012.7
20260504220529 77 207 0.0 2.0 0.00 0.00 0.00 45 1012.7
20260504220026 77 133 0.0 2.0 0.00 0.00 0.00 46 1012.7
20260504215522 77 178 0.0 5.0 0.00 0.00 0.00 46 1012.7
20260504215020 78 171 0.0 2.0 0.00 0.00 0.00 45 1012.7
20260504214516 78 173 0.0 0.0 0.00 0.00 0.00 45 1012.7
20260504214012 80 68 0.0 0.0 0.00 0.00 0.00 45 1012.7
20260504213509 79 161 0.0 0.0 0.00 0.00 0.00 45 1012.7
20260504213007 78 166 0.0 0.0 0.00 0.00 0.00 45 1012.7
20260504212502 77 14 0.0 0.0 0.00 0.00 0.00 45 1012.7
20260504212000 78 160 0.0 0.0 0.00 0.00 0.00 45 1013.0
20260504211456 78 189 0.0 0.0 0.00 0.00 0.00 45 1012.7
20260504210954 81 328 0.0 0.0 0.00 0.00 0.00 45 1012.7
20260504210450 79 264 0.0 0.0 0.00 0.00 0.00 45 1013.0
20260504205947 78 136 0.0 0.0 0.00 0.00 0.00 45 1013.0
20260504205445 78 142 0.0 0.0 0.00 0.00 0.00 45 1013.0
20260504204943 80 193 0.0 0.0 0.00 0.00 0.00 45 1013.0
20260504204441 80 289 0.0 0.0 0.00 0.00 0.00 45 1013.0
20260504203940 79 270 0.0 0.0 0.00 0.00 0.00 45 1013.4
20260504203437 80 207 0.0 0.0 0.00 0.00 0.00 45 1013.0
20260504202933 80 261 0.0 0.0 0.00 0.00 0.00 45 1013.4
20260504202430 80 316 0.0 0.0 0.00 0.00 0.00 45 1013.4
20260504201926 80 189 0.0 0.0 0.00 0.00 0.00 45 1013.4
20260504201424 78 242 0.0 0.0 0.00 0.00 0.00 45 1013.8
20260504200921 78 150 0.0 2.0 0.00 0.00 0.00 45 1013.4
20260504200418 78 172 0.0 0.0 0.00 0.00 0.00 45 1013.8
20260504195915 78 183 0.0 0.0 0.00 0.00 0.00 45 1013.8
20260504195410 78 243 0.0 10.0 0.00 0.00 0.00 45 1013.8
20260504194907 80 203 0.0 0.0 0.00 0.00 0.00 45 1013.8
20260504194403 80 218 0.0 0.0 0.00 0.00 0.00 45 1013.8
20260504193859 80 224 0.0 2.0 0.00 0.00 0.00 45 1013.8
20260504193356 78 283 6.0 8.0 0.00 0.00 0.00 45 1014.4
20260504192855 78 266 1.0 8.0 0.00 0.00 0.00 45 1014.1
20260504192352 80 282 0.0 0.0 0.00 0.00 0.00 45 1014.4
20260504191850 78 284 2.0 8.0 0.00 0.00 0.00 45 1014.4
20260504191348 79 273 0.0 2.0 0.00 0.00 0.00 45 1014.4
20260504190843 78 244 0.0 0.0 0.00 0.00 0.00 45 1014.4
20260504190339 77 257 0.0 5.0 0.00 0.00 0.00 45 1014.4
20260504185836 78 144 0.0 0.0 0.00 0.00 0.00 45 1014.4
20260504185333 78 193 0.0 2.0 0.00 0.00 0.00 45 1014.8
20260504184829 77 148 0.0 5.0 0.00 0.00 0.00 46 1014.8
20260504184325 79 249 0.0 0.0 0.00 0.00 0.00 45 1014.8